If you wish to contribute or participate in the discussions about articles you are invited to join SKYbrary as a registered user

 Actions

Adana Şakirpaşa Airport

From SKYbrary Wiki

LTAF
Airport
ICAO: LTAF – IATA: ADA
Summary
Name Adana Şakirpaşa Airport
Region Europe
Territory Turkey TR.gif
Location Adana, Adana
Serving Adana
Elevation 19.812 m
65 ft
65 ft19.812 m
Coordinates 36° 58' 57", 35° 16' 59.0016"
Runways
Designator Length Width Surface ROPS
5/23 2750 m9,022.31 ft 45 m147.638 ft ASP yes/yes


METAR
Observation LTAF 250020Z 06008KT 4800 BR SCT035 BKN100 12/10 Q1007 TEMPO -TSRA
Station Adana / Sakirpasa
Date/Time 25 February 2018 00:20:00
Wind direction 60°
Wind speed 08 kts
Lowest cloud amount scattered clouds
Temperature 12°C
Dew point 10°C
Humidity 87%
QNH 1007 hPa
Weather condition n/a

GND
Tag(s) Foreign Object Debris

Adana Şakirpaşa Airport

ICAO: LTAF IATA: ADA

Description

Military/Civil airport serving southern Turkey.

Climatology

Dry-summer subtropical ”Mediterranean" climate (Köppen climate classification Csa) - characterized by hot, dry summers and mild winters. During the summer, subtropical high pressure cells dominate, making rainfall unlikely except for the occasional thunderstorm. In the winter, periodic storms bring rain.

Maps

Terrain

Loading map...

Airport Layout

Loading map...


Accidents & Serious Incidents at or in vicinity of LTAF

None on SKYbrary